Probability
0 0 0 0 0 0 0 0 0 0 0 0 0 0 0 0 0 0 0 0 0 0 0 0 0 0 0 0 0 0 0 0 0 0 0 0 0 0 0 0 0 0 0
0 0 0 0 0 0 0 0 0 0 0 0 0 0 0 0 0 0 0 0 0 0 0 0 0 0 0 0 0 0 0 0 0 0 0 0 0 0 0 0 0 0 0
0 0 0 0 0 0 0 0 0 0 0 0 0 0 0 0 0 0 0 0 0 0 0 0 0 0 0 0 0 0 0 0 0 0 0 0 0 0 0 0 0 0 0
0 0 0 0 0 0 0 0 0 0 0 0 0 0 0 0 0 0 0 0 0 0 0 0 0 0 0 0 0 0 0 0 0 0 0 0 0 0 0 0 0 0 0
0 0 0 0 0 0 0 0 0 0 0 0 0 0 0 0 0 0 0 0 0 0 0 0 0 0 0 0 0 0 0 0 0 0 0 0 0 0 0 0 0 0 0
0 0 0 0 0 0 0 0 0 0 0 0 0 0 0 0 0 0 0 0 0 0 0 0 0 0 0 0 0 0 0 0 0 0 0 0 0 0 0 0 0 0 0
0 0 0 0 0 0 0 0 0 0 0 0 0 0 0 0 0 0 0 0 0 0 0 0 0 0 0 0 0 0 0 0 0 0 0 0 0 0 0 0 0 0 0
0 0 0 0 0 0 0 0 0 0 0 0 0 0 0 0 0 0 0 0 0 0 0 0 0 0 0 0 0 0 0 0 0 0 0 0 0 0 0 0 0 0 0
0 0 0 0 0 0 0 0 0 0 0 0 0 0 0 0 0 0 0 0 0 0 0 0 0 0 0 0 0 0 0 0 0 0 0 0 0 0 0 0 0 0 0
0 0 0 0 0 0 0 0 0 0 0 0 0 0 0 0 0 0 0 0 0 0 0 0 0 0 0 0 0 0 0 0 0 0 0 0 0 0 0 0 0 0 0
0 0 0 0 0 0 0 0 0 0 0 0 0 0 0 0 0 0 0 0 0 0 0 0 0 0 0 0 0 0 0 0 0 0 0 0 0 0 0 0 0 0 0
0 0 0 0 0 0 0 0 0 0 0 0 0 0 0 0 0 0 0 0 0 0 0 0 0 0 0 0 0 0 0 0 0 0 0 0 0 0 0 0 0 0 0
0 0 0 0 0 0 0 0 0 0 0 0 0 0 0 0 0 0 0 0 0 0 0 0 0 0 0 0 0 0 0 0 0 0 0 0 0 0 0 0 0 0 0
0 0 0 0 0 0 0 0 0 0 0 0 0 0 0 0 0 0 0 0 0 0 0 0 0 0 0 0 0 0 0 0 0 0 0 0 0 0 0 0 0 0 0
0 0 0 0 0 0 0 0 0 0 0 0 0 0 0 0 0 0 0 0 0 0 0 0 0 0 0 0 0 0 0 0 0 0 0 0 0 0 0 0 0 0 0
0 0 0 0 0 0 0 0 0 0 0 0 0 0 0 0 0 0 0 0 0 0 0 0 0 0 0 0 0 0 0 0 0 0 0 0 0 1 3 2 0 0 0
0 0 0 0 0 0 0 0 0 0 0 0 0 0 0 0 0 0 0 0 0 0 0 0 0 0 0 0 0 0 0 0 0 0 0 0 0 3 9 13 11 7 4
0 0 0 0 0 0 0 0 0 0 0 0 0 0 0 0 0 0 0 0 0 0 0 0 0 0 0 0 0 0 0 0 0 0 0 0 0 2 9 21 27 23 15
0 0 0 0 0 1 1 1 0 0 0 0 0 0 0 0 0 0 0 0 0 0 0 0 0 0 0 0 0 0 0 0 0 0 0 0 0 0 4 12 24 28 22
0 0 0 0 2 11 22 26 23 18 13 9 5 2 0 0 0 0 0 0 0 0 0 0 0 0 0 0 0 0 0 0 0 0 0 0 0 0 0 2 8 13 16
1 0 0 0 7 30 59 71 68 57 45 35 23 9 1 0 0 0 0 0 0 0 0 0 0 0 0 0 0 0 0 0 0 0 0 0 0 0 0 0 0 3 5
12 7 2 3 19 52 85 98 96 90 79 68 49 23 6 1 0 0 0 0 0 0 0 0 0 0 0 0 0 0 0 0 0 0 0 0 0 0 0 0 0 1 1
41 29 13 13 38 73 95 100 100 99 96 88 71 41 16 4 1 0 0 0 0 0 0 0 0 0 0 0 0 0 0 0 0 0 0 0 0 0 0 0 0 0 0
65 58 43 41 64 88 99 100 98 95 92 90 81 60 32 14 7 4 2 1 0 0 0 0 0 0 0 0 0 0 0 0 0 0 0 0 0 0 0 0 0 0 0
60 71 75 75 84 95 99 98 92 81 74 75 78 68 48 26 13 8 4 1 0 0 0 0 0 0 0 0 0 0 0 0 0 0 0 0 0 0 0 0 0 0 0
44 68 88 91 92 95 98 97 87 71 59 62 69 65 52 33 16 7 4 1 0 0 0 0 0 0 0 0 0 0 0 0 0 0 0 0 0 0 0 0 0 0 0
Wind_Speed
12 14 16 15 15 15 14 13 14 13 12 11 12 11 10 10 10 9 8 8 7 7 7 7 7 7 7 7 7 7 7 7 6 6 6 5 4 4 5 4 1 4 6
14 15 17 15 15 14 14 13 13 13 12 11 12 11 10 10 9 8 8 8 8 7 7 7 7 6 6 6 7 8 7 6 5 5 4 6 6 3 4 4 5 5 6
15 14 17 15 15 15 14 13 13 12 12 12 11 10 10 10 9 8 8 8 7 7 7 7 7 6 6 6 6 7 8 8 7 6 4 4 6 4 4 4 5 6 7
14 13 14 16 15 15 14 13 12 12 12 12 11 11 10 9 9 8 9 8 7 7 7 7 6 6 6 6 6 6 8 8 8 6 4 3 3 7 4 3 4 6 8
14 12 13 14 13 14 14 13 13 12 12 12 12 11 10 8 8 7 8 9 8 8 8 8 7 7 6 6 5 6 6 7 6 4 2 2 2 6 3 3 3 5 7
13 12 13 13 13 13 13 13 13 12 12 12 12 10 9 8 7 6 7 9 9 9 9 9 9 9 8 7 6 6 7 7 6 3 1 1 3 5 3 3 2 4 5
13 12 13 13 12 12 13 13 13 14 14 13 12 10 9 8 7 5 6 8 9 9 9 9 9 10 10 9 7 7 9 6 4 3 1 2 5 3 2 1 2 5 5
12 11 12 12 11 12 12 13 14 14 14 14 13 11 10 9 7 7 7 8 8 9 9 9 9 9 9 9 7 7 6 4 5 3 3 4 7 4 3 2 1 4 5
12 11 10 12 13 12 11 12 13 14 15 15 13 12 11 10 9 7 8 8 8 8 7 7 7 7 8 8 7 6 6 3 2 3 3 5 6 5 5 4 3 3 3
10 10 10 10 10 11 11 12 12 13 15 14 13 13 12 11 9 8 8 8 7 8 6 6 6 6 7 8 7 6 3 4 1 2 2 6 6 5 5 5 4 3 2
9 9 10 9 9 9 10 11 11 11 13 13 12 12 12 10 10 9 8 8 7 8 6 5 5 5 4 8 7 3 4 2 1 1 2 6 4 3 2 3 3 3 2
12 11 9 9 9 9 8 8 8 9 10 10 10 11 9 6 5 4 11 7 8 9 7 5 4 5 7 5 7 6 1 2 2 2 3 6 5 2 1 1 1 1 1
11 10 9 9 9 9 7 6 6 5 7 8 10 11 7 6 5 5 6 9 9 9 7 7 8 4 3 2 1 2 2 3 3 3 4 8 8 6 4 4 3 2 2
10 10 10 10 9 9 7 6 5 5 6 6 8 11 7 5 5 5 4 5 6 4 3 3 2 4 3 5 3 2 3 2 3 3 5 7 7 7 6 5 5 5 4
10 10 10 10 9 8 7 5 6 7 7 6 5 7 8 6 6 5 4 4 5 4 6 4 3 4 3 2 2 0 2 3 3 3 2 5 6 7 6 5 5 6 6
11 11 11 11 10 9 8 7 6 6 6 7 7 9 9 6 5 5 5 5 5 5 5 5 4 3 3 2 2 1 1 2 2 2 3 4 6 8 6 3 3 5 6
11 12 11 11 11 10 9 8 6 6 7 7 7 9 9 8 7 6 5 5 5 6 7 4 3 2 2 3 3 1 1 2 3 3 4 3 3 6 8 5 2 1 2
11 11 11 10 11 11 9 9 7 7 8 7 7 7 10 10 8 6 5 5 5 6 5 4 4 4 4 3 2 2 2 1 1 3 2 2 3 3 6 9 5 3 3
12 12 12 14 13 12 12 9 8 8 8 7 7 7 9 10 9 7 5 4 7 6 6 5 5 4 4 3 3 3 3 2 1 2 2 1 2 2 2 6 7 7 3
12 12 14 13 13 13 11 9 8 8 8 7 7 7 9 8 9 7 6 7 7 5 5 5 6 5 4 4 5 4 4 4 4 2 2 2 2 2 2 2 2 6 7
11 13 14 14 14 12 11 10 9 9 8 7 7 8 9 9 9 8 6 7 6 6 7 9 7 7 6 5 5 5 5 7 6 4 4 3 3 1 3 1 0 1 5
10 14 16 16 15 15 11 11 10 9 8 7 6 8 9 10 9 8 8 7 8 8 10 11 9 7 6 5 6 5 5 6 6 6 5 4 5 4 3 3 3 2 2
9 11 11 13 13 13 13 9 8 8 5 6 7 7 9 9 9 8 9 8 8 7 6 7 9 10 7 7 7 6 5 5 3 5 7 6 5 4 5 4 4 4 3
11 10 8 8 10 11 11 10 12 8 5 5 5 6 8 9 8 8 9 8 7 6 7 8 8 7 8 7 7 7 8 6 5 4 6 7 7 6 7 5 5 5 4
9 8 4 3 6 8 8 8 8 6 4 3 1 3 6 6 7 7 7 7 7 7 7 7 7 8 7 7 7 6 7 6 10 8 5 5 5 6 7 7 6 5 5
9 7 4 5 6 7 8 9 9 10 10 6 2 2 2 2 4 7 7 7 7 6 7 7 7 8 8 8 7 7 7 6 8 8 8 6 5 4 6 6 6 5 5
Wind_Direction
155 154 148 148 148 147 147 144 139 136 138 139 137 133 126 118 110 104 100 101 103 101 103 99 100 106 110 123 139 137 124 116 116 107 89 83 105 81 53 43 349 115 100
151 152 149 154 155 154 153 151 146 143 141 137 133 132 133 129 121 117 107 96 94 92 90 89 91 91 94 103 119 123 116 109 125 116 104 114 109 82 50 44 28 78 105
150 151 155 160 161 161 160 158 154 150 145 140 139 141 135 130 128 124 118 102 89 83 84 81 80 83 81 81 96 109 109 101 101 118 177 133 115 82 46 60 76 82 88
152 156 158 158 165 168 167 165 161 158 154 151 147 139 133 132 130 124 114 107 98 86 78 73 68 71 76 76 86 107 118 118 119 176 188 103 94 79 45 56 84 88 89
156 159 150 159 165 170 173 173 167 165 160 156 150 144 141 136 128 121 116 111 100 89 81 74 67 63 70 83 98 117 127 130 130 215 112 94 63 75 67 88 96 101 103
161 161 155 167 171 174 175 173 168 166 164 162 157 154 150 143 135 130 125 117 107 96 86 78 70 58 55 71 92 115 125 129 177 172 132 46 59 80 80 115 133 136 124
163 165 161 171 175 177 176 176 174 169 166 164 161 157 149 139 135 135 134 131 122 110 96 86 78 65 50 51 76 106 126 151 174 143 87 38 52 72 95 149 185 159 149
165 169 163 168 182 184 183 182 180 173 167 164 161 157 150 141 136 133 132 124 118 110 103 93 82 72 61 52 68 96 129 195 136 122 94 66 56 63 84 81 152 163 156
170 176 176 174 181 186 188 186 181 173 167 163 162 159 154 147 142 137 132 129 128 119 110 99 84 70 63 59 68 87 90 47 136 107 98 74 60 65 75 81 66 84 133
181 185 186 184 182 180 182 184 181 175 169 164 163 162 158 152 150 149 155 135 137 128 117 99 84 77 70 69 74 88 106 224 110 130 90 72 50 58 74 88 80 74 92
191 193 191 191 182 182 182 174 179 179 173 165 164 165 173 175 163 172 132 137 149 130 114 100 88 87 106 105 91 97 232 263 86 308 53 54 37 38 58 83 92 80 68
192 196 196 197 186 187 185 171 181 184 179 184 175 173 195 178 162 149 121 149 141 129 132 117 120 175 226 149 138 202 200 264 270 305 52 28 350 322 216 181 126 111 88
194 194 203 202 195 189 187 178 183 179 184 192 180 173 192 173 169 174 161 164 160 166 165 151 196 180 180 107 84 103 37 321 324 337 44 22 336 308 257 227 219 206 205
198 196 199 206 202 202 192 183 184 181 186 187 191 181 183 187 190 172 193 165 157 171 160 184 199 169 191 170 166 143 107 341 353 350 42 21 342 319 292 263 230 214 210
198 200 201 203 207 203 200 191 189 192 191 188 197 196 189 191 193 179 187 176 184 168 172 185 205 161 197 187 141 130 99 63 23 355 50 55 13 353 325 293 241 225 227
204 206 198 202 205 204 199 203 198 194 184 189 192 205 197 194 197 196 190 189 190 184 180 192 187 172 185 161 157 145 24 64 62 13 28 96 73 31 6 325 264 247 245
215 213 202 204 204 205 205 203 196 194 187 198 197 202 201 199 200 202 204 193 193 191 191 205 173 188 154 162 199 229 66 3 4 6 24 22 86 77 45 21 358 254 204
237 226 208 202 207 205 202 199 197 197 191 195 194 206 205 202 207 207 214 207 200 195 198 193 209 196 178 194 201 190 209 188 299 350 322 19 37 47 77 52 48 71 145
244 238 224 211 206 202 199 197 198 198 193 197 197 203 210 205 208 207 213 215 199 202 208 202 211 214 205 202 219 216 234 240 267 272 290 331 76 19 57 92 78 58 79
256 238 234 222 213 202 196 196 191 199 196 199 201 206 212 209 211 212 208 211 202 205 218 228 222 230 242 228 232 227 232 234 239 235 276 280 271 59 360 30 122 91 69
250 246 238 226 213 205 193 194 189 192 192 195 203 209 211 213 216 220 222 216 209 212 217 228 232 233 235 233 240 235 227 227 239 211 220 249 228 201 214 186 132 107 112
256 239 234 226 215 207 200 195 191 189 190 185 192 206 215 217 215 220 221 220 218 222 231 234 230 240 235 226 237 246 243 217 213 219 208 223 240 204 224 207 190 197 180
300 262 241 225 208 199 197 190 176 165 157 166 186 201 213 217 214 216 217 218 223 218 224 226 223 227 220 214 227 239 252 256 209 195 211 213 221 227 224 219 209 188 195
334 313 264 211 194 186 182 182 180 175 164 171 176 189 200 206 207 208 213 216 218 212 212 211 212 218 224 221 217 234 250 269 262 230 202 213 211 220 231 210 229 218 191
344 342 340 137 150 155 162 169 153 126 96 66 68 192 189 193 198 198 201 204 215 208 213 208 209 222 226 234 231 228 238 253 255 260 240 207 205 219 226 227 219 220 210
357 6 30 100 121 138 152 153 143 132 118 99 54 263 210 189 193 193 198 206 206 203 205 209 213 222 235 240 242 241 234 239 243 249 252 240 226 218 215 220 230 216 217